This is the latest recevied weather packets stored in our database for station/object OE6ATD-13. If no packets are shown the sender has not sent any weather packets the latest 10 day(s).
| Time | Temp. | Humidity | Pressure | Rain* | Wind** | Luminosity | Snow |
|---|---|---|---|---|---|---|---|
| 1778286318 | 12.22° C | 80% | 1016.6 hPa | 0 mm | - | 0 W/m² | - |
| 1778285729 | 12.22° C | 82% | 1016.7 hPa | 0 mm | - | 0 W/m² | - |
| 1778285125 | 12.22° C | 83% | 1016.8 hPa | 0 mm | - | 0 W/m² | - |
| 1778284520 | 12.22° C | 82% | 1016.7 hPa | 0 mm | - | 0 W/m² | - |
| 1778283916 | 12.22° C | 81% | 1016.7 hPa | 0 mm | - | 0 W/m² | - |
| 1778283327 | 12.78° C | 81% | 1016.7 hPa | 0 mm | - | 0 W/m² | - |
| 1778282723 | 12.22° C | 80% | 1016.8 hPa | 0 mm | - | 0 W/m² | - |
| 1778282118 | 12.22° C | 80% | 1016.8 hPa | 0 mm | - | 0 W/m² | - |
| 1778281529 | 12.22° C | 80% | 1016.8 hPa | 0 mm | - | 0 W/m² | - |
| 1778280925 | 12.22° C | 80% | 1016.8 hPa | 0 mm | - | 0 W/m² | - |
| 1778280321 | 12.22° C | 82% | 1016.8 hPa | 0 mm | - | 0 W/m² | - |
| 1778279717 | 12.22° C | 82% | 1016.8 hPa | 0 mm | - | 0 W/m² | - |
| 1778279128 | 12.22° C | 82% | 1016.7 hPa | 0 mm | - | 0 W/m² | - |
| 1778278523 | 12.22° C | 83% | 1016.6 hPa | 0 mm | - | 0 W/m² | - |
| 1778277925 | 12.22° C | 80% | 1016.6 hPa | 0 mm | - | 0 W/m² | - |
| 1778277321 | 12.22° C | 80% | 1016.6 hPa | 0 mm | - | 0 W/m² | - |
| 1778276717 | 12.78° C | 79% | 1016.6 hPa | 0 mm | - | 0 W/m² | - |
| 1778276127 | 12.78° C | 78% | 1016.6 hPa | 0 mm | - | 0 W/m² | - |
| 1778275524 | 12.78° C | 76% | 1016.4 hPa | 0 mm | - | 0 W/m² | - |
| 1778274919 | 12.78° C | 75% | 1016.5 hPa | 0 mm | - | 0 W/m² | - |
| 1778274315 | 12.78° C | 75% | 1016.5 hPa | 0 mm | - | 0 W/m² | - |
| 1778273727 | 12.78° C | 74% | 1016.4 hPa | 0 mm | - | 0 W/m² | - |
| 1778273122 | 12.78° C | 73% | 1016.4 hPa | 0 mm | - | 0 W/m² | - |
| 1778272517 | 13.33° C | 73% | 1016.4 hPa | 0 mm | - | 0 W/m² | - |
| 1778271929 | 13.33° C | 72% | 1016.3 hPa | 0 mm | - | 0 W/m² | - |
* Rain latest hour (hover to see other rain measurements)
** Current wind speed in m/s (hover to see current wind gust speed)